Kremmling, CO

12:35 AM MDT on September 20, 2019 (GMT -0600)
Kremmling

Weather History for K20V - August, 2019

Change the Weather History Date:

Saturday, August 24, 2019

  Actual Average Record
Temperature  
Mean Temperature 57 °F -  
Max Temperature 79 °F - 89 °F (2011)
Min Temperature 35 °F - 33 °F (2010)
Degree Days  
Heating Degree Days 8    
Month to date heating degree days 54  
Cooling Degree Days 0    
Month to date cooling degree days 20  
Growing Degree Days 7 (Base 50)    
Moisture  
Dew Point 35 °F    
Average Humidity 51    
Maximum Humidity 100    
Minimum Humidity 18    
Precipitation  
Precipitation 0.00 in - 0.08 in (2007)
Snow  
Snow 0.00 in - - ()
Snow Depth 0.00 in    
Sea Level Pressure  
Sea Level Pressure 30.24 in    
Wind  
Wind Speed 2 mph ()    
Max Wind Speed 12 mph    
Max Gust Speed 24 mph    
Visibility 10.0 miles    
Events      
T = Trace of Precipitation, MM = Missing Value Source: Averaged Metar Reports

Daily Weather History Graph

Daily Weather History Graph

Search for Another Location

Airport or City:

Astronomy

Aug. 24, 2019 Rise Set
Actual Time 6:25 AM MDT 7:49 PM MDT
Civil Twilight 5:57 AM MDT 8:17 PM MDT
Nautical Twilight 5:23 AM MDT 8:51 PM MDT
Astronomical Twilight 4:47 AM MDT 9:27 PM MDT
Moon 12:20 AM MDT (8/24) 3:08 PM MDT (8/24)
Length of Visible Light 14h 20m
Length of Day
13h 24m
Last Quarter, 38% of the Moon is Illuminated
Aug 24
Last Quarter
Aug 30
New
Sep 5
First Quarter
Sep 13
Full
Sep 21
Last Quarter

Hourly Weather History & Observations

Time (MDT) Temp. Windchill Dew Point Humidity Pressure Visibility Wind Dir Wind Speed Gust Speed Precip Events Conditions
12:06 AM 44.6 °F 43.1 °F 41.0 °F 87% 30.21 in 10.0 mi SE 3.5 mph - N/A   Clear
12:30 AM 46.4 °F - 42.8 °F 87% 30.21 in 10.0 mi Calm Calm - N/A   Clear
12:46 AM 46.4 °F 45.2 °F 42.8 °F 87% 30.21 in 10.0 mi North 3.5 mph - N/A   Clear
1:05 AM 44.6 °F 42.2 °F 39.2 °F 81% 30.22 in 10.0 mi SE 4.6 mph - N/A   Clear
1:29 AM 42.8 °F - 39.2 °F 87% 30.22 in 10.0 mi Calm Calm - N/A   Scattered Clouds
1:47 AM 42.8 °F 40.1 °F 37.4 °F 81% 30.22 in 10.0 mi East 4.6 mph - N/A   Scattered Clouds
2:05 AM 42.8 °F - 37.4 °F 81% 30.22 in 10.0 mi Calm Calm - N/A   Clear
2:29 AM 41.0 °F 39.0 °F 37.4 °F 87% 30.23 in 10.0 mi East 3.5 mph - N/A   Scattered Clouds
2:47 AM 42.8 °F 40.1 °F 37.4 °F 81% 30.24 in 10.0 mi West 4.6 mph - N/A   Mostly Cloudy
3:06 AM 41.0 °F - 37.4 °F 87% 30.23 in 10.0 mi Calm Calm - N/A   Overcast
3:30 AM 41.0 °F - 37.4 °F 87% 30.24 in 10.0 mi Calm Calm - N/A   Overcast
3:48 AM 42.8 °F - 37.4 °F 81% 30.24 in 10.0 mi Calm Calm - N/A   Overcast
4:06 AM 41.0 °F - 37.4 °F 87% 30.24 in 10.0 mi Calm Calm - N/A   Mostly Cloudy
4:30 AM 41.0 °F - 35.6 °F 81% 30.24 in 10.0 mi Calm Calm - N/A   Clear
4:48 AM 39.2 °F - 35.6 °F 87% 30.24 in 10.0 mi Calm Calm - N/A   Clear
5:06 AM 37.4 °F - 35.6 °F 93% 30.24 in 10.0 mi Calm Calm - N/A   Clear
5:30 AM 37.4 °F - 37.4 °F 100% 30.24 in 10.0 mi Calm Calm - N/A   Clear
5:48 AM 37.4 °F - 35.6 °F 93% 30.24 in 10.0 mi Calm Calm - N/A   Clear
6:27 AM 35.6 °F - 33.8 °F 93% 30.24 in 10.0 mi Calm Calm - N/A   Clear
6:51 AM 35.6 °F - 33.8 °F 93% 30.25 in 10.0 mi Calm Calm - N/A   Clear
7:06 AM 35.6 °F - 35.6 °F 100% 30.26 in 10.0 mi Calm Calm - N/A   Clear
7:30 AM 41.0 °F - 37.4 °F 87% 30.26 in 10.0 mi Calm Calm - N/A   Clear
7:48 AM 44.6 °F - 37.4 °F 76% 30.26 in 10.0 mi Calm Calm - N/A   Clear
8:06 AM 44.6 °F - 37.4 °F 76% 30.26 in 10.0 mi Calm Calm - N/A   Clear
8:30 AM 48.2 °F - 37.4 °F 66% 30.26 in 10.0 mi Calm Calm - N/A   Clear
8:48 AM 48.2 °F - 37.4 °F 66% 30.27 in 10.0 mi Calm Calm - N/A   Clear
9:06 AM 50.0 °F - 37.4 °F 62% 30.27 in 10.0 mi Calm Calm - N/A   Clear
9:30 AM 53.6 °F - 37.4 °F 54% 30.26 in 10.0 mi Calm Calm - N/A   Clear
9:48 AM 55.4 °F - 37.4 °F 51% 30.26 in 10.0 mi Calm Calm - N/A   Clear
10:06 AM 55.4 °F - 37.4 °F 51% 30.27 in 10.0 mi Calm Calm - N/A   Clear
10:30 AM 57.2 °F - 37.4 °F 48% 30.27 in 10.0 mi Calm Calm - N/A   Clear
10:48 AM 59.0 °F - 35.6 °F 42% 30.27 in 10.0 mi Calm Calm - N/A   Clear
11:06 AM 60.8 °F - 35.6 °F 39% 30.27 in 10.0 mi Calm Calm - N/A   Clear
11:30 AM 64.4 °F - 35.6 °F 34% 30.27 in 10.0 mi Calm Calm - N/A   Clear
11:48 AM 68.0 °F - 35.6 °F 30% 30.26 in 10.0 mi NW 3.5 mph - N/A   Clear
12:06 PM 68.0 °F - 33.8 °F 28% 30.26 in 10.0 mi Calm Calm - N/A   Clear
12:30 PM 73.4 °F - 35.6 °F 25% 30.24 in 10.0 mi NW 3.5 mph - N/A   Clear
12:48 PM 73.4 °F - 32.0 °F 22% 30.24 in 10.0 mi West 6.9 mph - N/A   Clear
1:06 PM 73.4 °F - 33.8 °F 23% 30.24 in 10.0 mi West 9.2 mph - N/A   Clear
1:30 PM 75.2 °F - 33.8 °F 22% 30.23 in 10.0 mi SW 8.1 mph - N/A   Clear
1:48 PM 73.4 °F - 32.0 °F 22% 30.23 in 10.0 mi WSW 6.9 mph - N/A   Clear
2:06 PM 73.4 °F - 33.8 °F 23% 30.23 in 10.0 mi WNW 8.1 mph - N/A   Clear
2:30 PM 73.4 °F - 32.0 °F 22% 30.22 in 10.0 mi WNW 6.9 mph - N/A   Clear
2:48 PM 75.2 °F - 32.0 °F 21% 30.22 in 10.0 mi WNW 8.1 mph - N/A   Clear
3:06 PM 75.2 °F - 32.0 °F 21% 30.22 in 10.0 mi North 4.6 mph - N/A   Clear
3:30 PM 77.0 °F - 30.2 °F 18% 30.21 in 10.0 mi WNW 10.4 mph 19.6 mph N/A   Clear
3:48 PM 78.8 °F - 32.0 °F 18% 30.21 in 10.0 mi WNW 9.2 mph 16.1 mph N/A   Clear
4:11 PM 78.8 °F - 32.0 °F 18% 30.21 in 10.0 mi WNW 11.5 mph 24.2 mph N/A   Clear
4:29 PM 78.8 °F - 32.0 °F 18% 30.21 in 10.0 mi WNW 11.5 mph 18.4 mph N/A   Clear
4:47 PM 75.2 °F - 30.2 °F 19% 30.21 in 10.0 mi NW 10.4 mph 16.1 mph N/A   Clear
5:06 PM 75.2 °F - 32.0 °F 21% 30.22 in 10.0 mi WNW 8.1 mph 16.1 mph N/A   Clear
5:30 PM 73.4 °F - 30.2 °F 20% 30.22 in 10.0 mi NW 10.4 mph - N/A   Clear
5:47 PM 73.4 °F - 32.0 °F 22% 30.22 in 10.0 mi NW 8.1 mph - N/A   Clear
6:06 PM 75.2 °F - 32.0 °F 21% 30.22 in 10.0 mi WNW 3.5 mph 16.1 mph N/A   Clear
6:30 PM 75.2 °F - 30.2 °F 19% 30.22 in 10.0 mi NNW 8.1 mph - N/A   Clear
6:48 PM 75.2 °F - 30.2 °F 19% 30.22 in 10.0 mi NNW 8.1 mph - N/A   Clear
7:06 PM 73.4 °F - 30.2 °F 20% 30.22 in 10.0 mi North 5.8 mph - N/A   Clear
7:29 PM 71.6 °F - 32.0 °F 23% 30.22 in 10.0 mi Calm Calm - N/A   Clear
7:47 PM 68.0 °F - 32.0 °F 26% 30.22 in 10.0 mi WSW 4.6 mph - N/A   Clear
8:11 PM 68.0 °F - 32.0 °F 26% 30.23 in 10.0 mi Calm Calm - N/A   Clear
8:29 PM 64.4 °F - 32.0 °F 30% 30.24 in 10.0 mi Calm Calm - N/A   Clear
8:47 PM 62.6 °F - 32.0 °F 32% 30.24 in 10.0 mi Calm Calm - N/A   Clear
9:06 PM 59.0 °F - 32.0 °F 36% 30.24 in 10.0 mi Calm Calm - N/A   Clear
9:30 PM 55.4 °F - 32.0 °F 41% 30.25 in 10.0 mi NNW 3.5 mph - N/A   Clear
9:48 PM 53.6 °F - 33.8 °F 47% 30.26 in 10.0 mi Calm Calm - N/A   Clear
10:06 PM 53.6 °F - 32.0 °F 44% 30.26 in 10.0 mi Calm Calm - N/A   Clear
10:30 PM 53.6 °F - 32.0 °F 44% 30.26 in 10.0 mi SE 3.5 mph - N/A   Clear
10:48 PM 53.6 °F - 33.8 °F 47% 30.25 in 10.0 mi Calm Calm - N/A   Clear
11:06 PM 51.8 °F - 35.6 °F 54% 30.26 in 10.0 mi Calm Calm - N/A   Clear
11:30 PM 48.2 °F - 33.8 °F 58% 30.25 in 10.0 mi Calm Calm - N/A   Clear
11:48 PM 48.2 °F - 33.8 °F 58% 30.25 in 10.0 mi Calm Calm - N/A   Clear